EW1390 Weather Reports


Display with metric or nautical units.
time (UTC)temp
F
wind
direction
speed
MPH
gust
MPH
rain 1hr
in
rain 24hr
in
rain mn
in
humidity
%
barometer
mb
20260902204606 75 229 4.0 10.0 0.00 0.00 0.00 36 1009.9
20260902203056 75 229 2.0 8.0 0.00 0.00 0.00 37 1010.1
20260902201616 75 117 2.0 14.0 0.00 0.00 0.00 38 1010.2
20260902200054 75 132 2.0 8.0 0.00 0.00 0.00 40 1010.3
20260902194553 74 85 2.0 10.0 0.00 0.00 0.00 40 1010.3
20260902193050 74 117 1.0 8.0 0.00 0.00 0.00 41 1010.3
20260902191547 73 188 1.0 8.0 0.00 0.00 0.00 41 1010.5
20260902190046 73 208 2.0 7.0 0.00 0.00 0.00 42 1010.6
20260902184545 73 239 1.0 8.0 0.00 0.00 0.00 42 1010.7
20260902183042 71 130 1.0 7.0 0.00 0.00 0.00 45 1010.8
20260902181540 71 156 0.0 5.0 0.00 0.00 0.00 46 1010.9
20260902180036 70 138 1.0 6.0 0.00 0.00 0.00 47 1010.8
20260902174544 68 54 0.0 4.0 0.00 0.00 0.00 49 1010.7
20260902173029 68 200 0.0 3.0 0.00 0.00 0.00 50 1010.6
20260902171526 67 153 0.0 3.0 0.00 0.00 0.00 52 1010.6
20260902170031 65 207 0.0 3.0 0.00 0.00 0.00 55 1010.7
20260902164526 63 246 0.0 3.0 0.00 0.00 0.00 60 1010.7
20260902163012 61 328 0.0 3.0 0.00 0.00 0.00 67 1010.7
20260902161521 59 331 0.0 0.0 0.00 0.00 0.00 75 1010.5
20260902160007 57 331 0.0 0.0 0.00 0.00 0.00 82 1010.5
20260902154605 55 331 0.0 0.0 0.00 0.00 0.00 83 1010.5
20260902153058 54 331 0.0 0.0 0.00 0.00 0.00 84 1010.4
20260902151657 53 331 0.0 0.0 0.00 0.00 0.00 85 1010.6
20260902150056 51 331 0.0 0.0 0.00 0.00 0.00 86 1010.7
20260902144559 50 331 0.0 0.0 0.00 0.00 0.00 87 1010.6
20260902143052 48 331 0.0 0.0 0.00 0.00 0.00 87 1010.4
20260902141550 47 331 0.0 0.0 0.00 0.00 0.00 86 1010.0
20260902140049 47 331 0.0 0.0 0.00 0.00 0.00 86 1010.0
20260902134548 47 331 0.0 0.0 0.00 0.00 0.00 86 1010.0
20260902133055 47 331 0.0 0.0 0.00 0.00 0.00 85 1009.6
20260902131556 47 331 0.0 0.0 0.00 0.00 0.00 85 1009.6
20260902130044 47 331 0.0 0.0 0.00 0.00 0.00 85 1009.5
20260902124544 47 331 0.0 0.0 0.00 0.00 0.00 85 1009.3
20260902123043 47 331 0.0 0.0 0.00 0.00 0.00 85 1009.3
20260902121543 47 331 0.0 0.0 0.00 0.00 0.00 85 1009.4
20260902120041 47 331 0.0 0.0 0.00 0.00 0.00 84 1009.4
20260902114544 47 331 0.0 0.0 0.00 0.00 0.00 84 1009.4
20260902113052 47 331 0.0 0.0 0.00 0.00 0.00 83 1009.7
20260902111538 48 331 0.0 0.0 0.00 0.00 0.00 83 1009.7
20260902110036 48 331 0.0 0.0 0.00 0.00 0.00 83 1009.7
20260902104551 48 331 0.0 0.0 0.00 0.00 0.00 83 1009.8
20260902103033 48 331 0.0 0.0 0.00 0.00 0.00 82 1009.6
20260902101537 48 331 0.0 1.0 0.00 0.00 0.00 83 1009.5
20260902100029 49 331 0.0 0.0 0.00 0.00 0.00 82 1009.4
20260902094528 49 331 0.0 0.0 0.00 0.00 0.00 82 1009.4
20260902093027 49 331 0.0 0.0 0.00 0.00 0.00 81 1009.4
20260902091530 50 331 0.0 0.0 0.00 0.00 0.00 80 1009.4
20260902090021 50 331 0.0 1.0 0.00 0.00 0.00 80 1009.3
20260902084520 50 331 0.0 0.0 0.00 0.00 0.00 80 1009.5
20260902083017 51 331 0.0 0.0 0.00 0.00 0.00 79 1009.6
20260902081521 51 331 0.0 1.0 0.00 0.00 0.00 78 1009.7
20260902080014 52 331 1.0 2.0 0.00 0.00 0.00 78 1009.6
20260902074510 52 331 0.0 2.0 0.00 0.00 0.00 76 1009.5
20260902073007 53 331 0.0 0.0 0.00 0.00 0.00 75 1009.3
20260902071504 54 331 0.0 0.0 0.00 0.00 0.00 74 1009.4
20260902070100 55 331 0.0 0.0 0.00 0.00 0.00 73 1009.5
20260902064559 55 331 0.0 0.0 0.00 0.00 0.00 73 1009.6
20260902063059 56 331 0.0 1.0 0.00 0.00 0.00 72 1009.5
20260902061559 56 331 0.0 1.0 0.00 0.00 0.00 72 1009.8
20260902060105 57 331 0.0 4.0 0.00 0.00 0.00 71 1009.9
20260902054607 57 228 0.0 3.0 0.00 0.00 0.00 70 1010.0
20260902053111 58 228 0.0 2.0 0.00 0.00 0.00 70 1009.8
20260902051604 58 228 0.0 3.0 0.00 0.00 0.00 69 1009.9
20260902050059 58 207 1.0 8.0 0.00 0.00 0.00 68 1009.9
20260902044552 58 257 1.0 6.0 0.00 0.00 0.00 68 1009.7
20260902043058 57 227 0.0 2.0 0.00 0.00 0.00 67 1009.4
20260902041548 57 227 0.0 0.0 0.00 0.00 0.00 63 1009.1
20260902040046 58 227 0.0 0.0 0.00 0.00 0.00 61 1008.8
20260902034545 59 227 0.0 1.0 0.00 0.00 0.00 60 1008.6
20260902033046 60 227 0.0 1.0 0.00 0.00 0.00 58 1008.4
20260902031544 61 227 0.0 2.0 0.00 0.00 0.00 56 1008.2
20260902030043 62 227 0.0 2.0 0.00 0.00 0.00 54 1008.0
20260902024542 64 227 0.0 1.0 0.00 0.00 0.00 52 1007.8
20260902023048 65 227 0.0 2.0 0.00 0.00 0.00 49 1007.6
20260902021542 67 227 1.0 3.0 0.00 0.00 0.00 48 1007.5
20260902020041 69 227 0.0 3.0 0.00 0.00 0.00 46 1007.3
20260902014544 70 227 0.0 2.0 0.00 0.00 0.00 42 1007.1
20260902013039 71 227 0.0 2.0 0.00 0.00 0.00 43 1007.1
20260902011550 70 227 0.0 2.0 0.00 0.00 0.00 43 1007.0
20260902010038 71 205 1.0 4.0 0.00 0.00 0.00 41 1007.1
20260902004537 72 161 0.0 4.0 0.00 0.00 0.00 40 1007.2
20260902003037 73 229 1.0 4.0 0.00 0.00 0.00 40 1007.1
20260902001535 74 302 1.0 7.0 0.00 0.00 0.00 39 1007.1
20260902000040 73 229 0.0 7.0 0.00 0.00 0.00 41 1007.2
20260901234533 72 217 0.0 6.0 0.00 0.00 0.00 41 1007.2
20260901233033 73 225 1.0 5.0 0.00 0.00 0.00 39 1007.3
20260901231540 74 262 1.0 4.0 0.00 0.00 0.00 39 1007.3
20260901230032 74 229 1.0 5.0 0.00 0.00 0.00 38 1007.5
20260901224531 75 102 1.0 4.0 0.00 0.00 0.00 38 1007.4
20260901223030 74 227 2.0 11.0 0.00 0.00 0.00 37 1007.3
20260901221600 74 199 1.0 4.0 0.00 0.00 0.00 37 1007.5
20260901220041 75 194 2.0 10.0 0.00 0.00 0.00 37 1007.6
20260901214528 75 14 0.0 4.0 0.00 0.00 0.00 39 1007.7
20260901213025 75 93 2.0 9.0 0.00 0.00 0.00 40 1007.8
20260901211526 75 284 1.0 5.0 0.00 0.00 0.00 40 1007.7
20260901210030 75 95 1.0 7.0 0.00 0.00 0.00 40 1007.7